Regional Weather Roundup
Issued by NWS

Home | Current Version | Previous Version | Text Only | Print | Product List | Glossary Off
Versions: 1 2 3 4 5 6 7 8 9 10 11 12 13 14 15 16 17 18 19 20 21 22 23 24 25 26 27 28 29 30 31 32 33 34 35 36 37 38 39 40 41 42 43 44 45 46 47 48 49 50

000
ASUS45 KCYS 281310
RWRWY

WYOMING REGIONAL WEATHER ROUNDUP
NATIONAL WEATHER SERVICE CHEYENNE WY
600 AM MST SAT FEB 28 2015

NOTE:  "FAIR" INDICATES FEW OR NO CLOUDS BELOW 12,000 FEET
WITH NO SIGNIFICANT WEATHER AND/OR OBSTRUCTIONS TO VISIBILITY.

WYZ001-281400-
YELLOWSTONE NATIONAL PARK

CITY           SKY/WX    TMP DP  RH WIND       PRES   REMARKS
LK YELLOWSTONE   N/A    -13 -18  78 CALM      29.78S
W YELLOWSTONE  NOT AVBL

$$
WYZ002>013-054>058-071-098>099-281400-
NORTHERN WYOMING

CITY           SKY/WX    TMP DP  RH WIND       PRES   REMARKS
JACKSON        CLOUDY    10   7  85 N15       29.79S WCI  -6
CODY           CLOUDY     9   9 100 CALM      29.97S
GREYBULL       CLOUDY    15   7  70 W10       30.03R WCI   2
WORLAND        MOCLDY    15   7  70 N5        30.01R WCI   8
SHERIDAN       CLOUDY    15   6  67 W5        30.07R WCI   8
BUFFALO        FAIR       2  -2  83 W5        30.00R WCI  -8
GILLETTE       CLOUDY    10   4  76 W5        30.03R WCI   2
HULETT         FAIR      10   3  72 CALM      30.03R
NEWCASTLE      FAIR       9   3  78 N8        30.02R WCI  -4

$$
WYZ014>020-022>026-101>103-281400-
CENTRAL WYOMING

CITY           SKY/WX    TMP DP  RH WIND       PRES   REMARKS
BIG PINEY      FLURRIES  15  12  88 CALM      29.78R
PINEDALE       LGT SNOW  12  10  92 NW3       29.77S
DUBOIS         LGT SNOW   5   1  85 NW5       29.81R WCI  -4
LANDER         CLOUDY    15  11  83 CALM      29.89R
RIVERTON       CLOUDY    13  10  88 NE5       29.92R WCI   5
CASPER         CLOUDY    12   7  80 NE10      29.95R WCI  -1
DOUGLAS        CLOUDY    12   7  80 CALM      29.99R

$$
WYZ021-027>030-104>119-281400-
SOUTHERN WYOMING

CITY           SKY/WX    TMP DP  RH WIND       PRES   REMARKS
EVANSTON       FAIR      16  13  88 E14       29.69S WCI   2
FORT BRIDGER   CLOUDY    15  14  98 N5        29.76R WCI   7
ROCK SPRINGS   MOCLDY     9   6  88 NE8       29.78S WCI  -3
DIXON          CLOUDY    17   8  69 E6        29.80F WCI   9
RAWLINS        MOCLDY     9   4  80 NE5       29.81S WCI   1
SARATOGA       CLOUDY     3   0  85 CALM      29.81R
LARAMIE        FAIR      -2  -6  83 W8        29.79R WCI -17
CHEYENNE       FAIR      10   4  76 VRB5      29.87R WCI   2
TORRINGTON     CLOUDY     8   2  76 CALM      30.00R
PINE BLUFFS    FAIR      -2  -6  84 MISG      29.93S

$$



USA.gov is the U.S. government's official web portal to all federal, state and local government web resources and services.